DAL823 FMMI-SBGL

Flight info

Callsign DAL823
Flight time N/A
Altitude 30000
Route DOBAR UA400 EVOLU UR525 IXATA UA400 VOTAL UQ7 VNA UL340 ADA
Aircraft B773/H-VGDW/C

Departure

Time 2026-05-04 13:43
Airport Ivato International Airport (FMMI)

Arrival

Time N/A
Airport Rio Galeão – Tom Jobim International Airport (SBGL)
Time Latitude Longitude Altitude Speed Heading
2026-05-04 13:15 -18.79977 47.48096 4163 ft 0 kts 252°
2026-05-04 13:33 -18.79978 47.48086 4164 ft 2 kts 268°
2026-05-04 13:34 -18.79974 47.48074 4164 ft 2 kts 299°
2026-05-04 13:34 -18.79962 47.48066 4164 ft 2 kts 337°
2026-05-04 13:34 -18.79958 47.48064 4165 ft 0 kts 337°
2026-05-04 13:36 -18.79941 47.48057 4165 ft 8 kts 337°
2026-05-04 13:37 -18.79893 47.48014 4166 ft 9 kts 296°
2026-05-04 13:37 -18.79877 47.47947 4168 ft 9 kts 280°
2026-05-04 13:37 -18.79867 47.47880 4170 ft 9 kts 279°
2026-05-04 13:37 -18.79856 47.47812 4172 ft 9 kts 280°
2026-05-04 13:38 -18.79839 47.47746 4172 ft 9 kts 283°
2026-05-04 13:38 -18.79828 47.47679 4172 ft 9 kts 279°
2026-05-04 13:38 -18.79806 47.47615 4175 ft 9 kts 309°
2026-05-04 13:38 -18.79746 47.47597 4178 ft 9 kts
2026-05-04 13:39 -18.79682 47.47598 4179 ft 9 kts 345°
2026-05-04 13:39 -18.79644 47.47546 4178 ft 9 kts 284°
2026-05-04 13:39 -18.79632 47.47478 4181 ft 10 kts 279°
2026-05-04 13:39 -18.79616 47.47370 4183 ft 19 kts 278°
2026-05-04 13:40 -18.79596 47.47231 4188 ft 19 kts 279°
2026-05-04 13:40 -18.79575 47.47092 4191 ft 19 kts 279°
2026-05-04 13:40 -18.79555 47.46954 4195 ft 19 kts 279°
2026-05-04 13:40 -18.79534 47.46815 4200 ft 19 kts 279°
2026-05-04 13:41 -18.79513 47.46676 4203 ft 19 kts 279°
2026-05-04 13:41 -18.79497 47.46570 4205 ft 11 kts 279°
2026-05-04 13:41 -18.79459 47.46502 4208 ft 11 kts 314°
2026-05-04 13:42 -18.79489 47.46510 4207 ft 6 kts 99°
2026-05-04 13:42 -18.79490 47.46518 4207 ft 0 kts 98°
2026-05-04 13:42 -18.79492 47.46531 4206 ft 10 kts 98°
2026-05-04 13:42 -18.79535 47.46829 4199 ft 76 kts 99°
2026-05-04 13:43 -18.79659 47.47646 4176 ft 145 kts 98°
2026-05-04 13:43 -18.79859 47.48927 4174 ft 202 kts 101°
2026-05-04 13:43 -18.80069 47.50361 4844 ft 207 kts 97°
2026-05-04 13:43 -18.80060 47.51876 5736 ft 208 kts 74°
2026-05-04 13:44 -18.79223 47.53160 6377 ft 227 kts 35°
2026-05-04 13:44 -18.77660 47.53587 7003 ft 243 kts 354°
2026-05-04 13:44 -18.76143 47.52874 7784 ft 242 kts 312°
2026-05-04 13:44 -18.75329 47.51379 8433 ft 235 kts 280°
2026-05-04 13:45 -18.74998 47.49736 9336 ft 226 kts 277°
2026-05-04 13:45 -18.74684 47.48050 9827 ft 242 kts 278°
2026-05-04 13:45 -18.74343 47.46240 10212 ft 264 kts 278°
2026-05-04 13:45 -18.73911 47.44268 10420 ft 282 kts 281°
2026-05-04 13:46 -18.73407 47.42236 10789 ft 293 kts 281°
2026-05-04 13:46 -18.72891 47.40116 11157 ft 305 kts 281°
2026-05-04 13:46 -18.72373 47.37889 11440 ft 322 kts 281°
2026-05-04 13:46 -18.71844 47.35524 11714 ft 339 kts 280°
2026-05-04 13:47 -18.71303 47.33040 11988 ft 356 kts 280°
2026-05-04 13:47 -18.70752 47.30449 12259 ft 372 kts 280°
2026-05-04 13:47 -18.70183 47.27734 12651 ft 383 kts 280°
2026-05-04 13:47 -18.69608 47.24965 13166 ft 391 kts 280°
2026-05-04 13:48 -18.69025 47.22143 13692 ft 397 kts 280°
2026-05-04 13:48 -18.68433 47.19277 14210 ft 403 kts 280°
2026-05-04 13:48 -18.67833 47.16373 14718 ft 407 kts 280°
2026-05-04 13:48 -18.67228 47.13439 15247 ft 411 kts 280°
2026-05-04 13:49 -18.66620 47.10489 15786 ft 413 kts 280°
2026-05-04 13:49 -18.66006 47.07512 16327 ft 416 kts 281°
2026-05-04 13:49 -18.65386 47.04514 16781 ft 421 kts 281°
2026-05-04 13:49 -18.64762 47.01492 17264 ft 424 kts 281°
2026-05-04 13:50 -18.64132 46.98448 17734 ft 427 kts 281°
2026-05-04 13:50 -18.63497 46.95380 18199 ft 430 kts 281°
2026-05-04 13:50 -18.62857 46.92293 18620 ft 432 kts 281°
2026-05-04 13:50 -18.62214 46.89189 19037 ft 434 kts 281°
2026-05-04 13:51 -18.61569 46.86082 19395 ft 437 kts 281°
2026-05-04 13:51 -18.60917 46.82939 19744 ft 440 kts 281°
2026-05-04 13:51 -18.60259 46.79777 20118 ft 442 kts 282°
2026-05-04 13:51 -18.59598 46.76600 20472 ft 444 kts 282°
2026-05-04 13:52 -18.58270 46.70226 21205 ft 448 kts 282°
2026-05-04 13:52 -18.57600 46.67014 21557 ft 449 kts 282°
2026-05-04 13:52 -18.56929 46.63798 21901 ft 451 kts 282°
2026-05-04 13:53 -18.56250 46.60547 22197 ft 453 kts 282°
2026-05-04 13:53 -18.55571 46.57301 22502 ft 455 kts 282°
2026-05-04 13:53 -18.54888 46.54035 22800 ft 457 kts 282°
2026-05-04 13:54 -18.53472 46.47478 23414 ft 460 kts 284°
2026-05-04 13:54 -18.52644 46.44224 23693 ft 462 kts 285°
2026-05-04 13:54 -18.50866 46.37667 24182 ft 467 kts 285°
2026-05-04 13:55 -18.49973 46.34381 24521 ft 466 kts 285°
2026-05-04 13:55 -18.48212 46.27795 25117 ft 468 kts 285°
2026-05-04 13:55 -18.47340 46.24491 25376 ft 470 kts 284°
2026-05-04 13:56 -18.46468 46.21177 25630 ft 471 kts 284°
2026-05-04 13:56 -18.45603 46.17886 25892 ft 472 kts 284°
2026-05-04 13:56 -18.43848 46.11212 26438 ft 474 kts 284°
2026-05-04 13:57 -18.42964 46.07859 26716 ft 475 kts 284°
2026-05-04 13:57 -18.42079 46.04503 26954 ft 477 kts 284°
2026-05-04 13:58 -18.39402 45.94374 27701 ft 480 kts 284°
2026-05-04 13:58 -18.37603 45.87583 28164 ft 482 kts 284°
2026-05-04 13:58 -18.36690 45.84140 28397 ft 483 kts 284°
2026-05-04 13:59 -18.35785 45.80727 28615 ft 484 kts 284°
2026-05-04 13:59 -18.34891 45.77363 28817 ft 486 kts 284°
2026-05-04 13:59 -18.33065 45.70496 29190 ft 488 kts 284°
2026-05-04 14:00 -18.32152 45.67065 29409 ft 487 kts 284°
2026-05-04 14:00 -18.30310 45.60156 29970 ft 486 kts 284°
2026-05-04 14:00 -18.29399 45.56741 29998 ft 487 kts 284°
2026-05-04 14:01 -18.27572 45.49901 30012 ft 484 kts 284°
2026-05-04 14:02 -18.24842 45.39704 30016 ft 482 kts 284°
2026-05-04 14:02 -18.23024 45.32918 30004 ft 482 kts 284°
2026-05-04 14:03 -18.21210 45.26164 29992 ft 483 kts 284°
2026-05-04 14:03 -18.19682 45.20480 29988 ft 484 kts 284°
2026-05-04 14:04 -18.16928 45.10258 29981 ft 485 kts 284°
2026-05-04 14:04 -18.15085 45.03427 29971 ft 485 kts 284°
2026-05-04 14:05 -18.12301 44.93133 29978 ft 494 kts 284°
2026-05-04 14:06 -18.10408 44.86154 29971 ft 498 kts 284°
2026-05-04 14:06 -18.08507 44.79155 29965 ft 499 kts 284°
2026-05-04 14:07 -18.06598 44.72140 29965 ft 498 kts 284°
2026-05-04 14:07 -18.04696 44.65155 29970 ft 496 kts 284°
2026-05-04 14:08 -18.02797 44.58195 29974 ft 495 kts 284°
2026-05-04 14:08 -18.00901 44.51252 29972 ft 494 kts 284°
2026-05-04 14:09 -17.98055 44.40855 29979 ft 493 kts 284°
2026-05-04 14:10 -17.95208 44.30475 29978 ft 493 kts 285°
2026-05-04 14:10 -17.93303 44.23545 29984 ft 494 kts 285°
2026-05-04 14:11 -17.91398 44.16621 29978 ft 494 kts 285°
2026-05-04 14:11 -17.88541 44.06261 29975 ft 495 kts 285°
2026-05-04 14:12 -17.86610 43.99274 29980 ft 495 kts 285°
2026-05-04 14:13 -17.83745 43.88923 29981 ft 495 kts 285°
2026-05-04 14:13 -17.81822 43.81990 29977 ft 495 kts 285°
2026-05-04 14:14 -17.79899 43.75064 29978 ft 494 kts 285°
2026-05-04 14:14 -17.77010 43.64682 29984 ft 494 kts 285°
2026-05-04 14:15 -17.73152 43.50851 29986 ft 494 kts 285°
2026-05-04 14:16 -17.70253 43.40485 29989 ft 494 kts 285°
2026-05-04 14:17 -17.67344 43.30105 29990 ft 495 kts 285°
2026-05-04 14:18 -17.64428 43.19725 29991 ft 495 kts 285°
2026-05-04 14:19 -17.60529 43.05879 29993 ft 495 kts 285°
2026-05-04 14:19 -17.58579 42.98971 29993 ft 495 kts 285°
2026-05-04 14:20 -17.56623 42.92049 29992 ft 495 kts 286°
2026-05-04 14:20 -17.54665 42.85133 29995 ft 495 kts 286°
2026-05-04 14:21 -17.51719 42.74743 29995 ft 495 kts 286°
2026-05-04 14:21 -17.49754 42.67827 29997 ft 496 kts 286°
2026-05-04 14:22 -17.47789 42.60920 29995 ft 496 kts 286°
2026-05-04 14:22 -17.45815 42.53989 29995 ft 496 kts 286°
2026-05-04 14:23 -17.42851 42.43606 29998 ft 496 kts 286°
2026-05-04 14:24 -17.40886 42.36733 30001 ft 497 kts 286°
2026-05-04 14:24 -17.38903 42.29804 30000 ft 497 kts 286°
2026-05-04 14:25 -17.36913 42.22863 30000 ft 497 kts 286°
2026-05-04 14:25 -17.33925 42.12461 30003 ft 498 kts 286°
2026-05-04 14:26 -17.31929 42.05523 30001 ft 498 kts 286°
2026-05-04 14:26 -17.29931 41.98588 30007 ft 498 kts 286°
2026-05-04 14:27 -17.27924 41.91633 30005 ft 498 kts 286°
2026-05-04 14:27 -17.25922 41.84701 30009 ft 498 kts 286°
2026-05-04 14:28 -17.23914 41.77758 30004 ft 498 kts 287°
2026-05-04 14:28 -17.21903 41.70813 30005 ft 498 kts 286°
2026-05-04 14:29 -17.18722 41.56765 30004 ft 498 kts 282°
2026-05-04 14:30 -17.17193 41.49706 30010 ft 498 kts 283°
2026-05-04 14:31 -17.14854 41.39090 30010 ft 498 kts 283°
2026-05-04 14:32 -17.11733 41.25019 30017 ft 498 kts 283°
2026-05-04 14:32 -17.10165 41.17967 30016 ft 498 kts 283°
2026-05-04 14:33 -17.08598 41.10923 30017 ft 498 kts 283°
2026-05-04 14:33 -17.07027 41.03876 30016 ft 497 kts 283°
2026-05-04 14:34 -17.05455 40.96838 30016 ft 497 kts 283°
2026-05-04 14:34 -17.03882 40.89809 30017 ft 496 kts 283°
2026-05-04 14:35 -17.02309 40.82787 30018 ft 496 kts 283°
2026-05-04 14:35 -17.00737 40.75786 30018 ft 495 kts 283°
2026-05-04 14:36 -16.99163 40.68786 30018 ft 495 kts 283°
2026-05-04 14:36 -16.97585 40.61778 30022 ft 496 kts 283°
2026-05-04 14:37 -16.96000 40.54754 30022 ft 497 kts 283°
2026-05-04 14:37 -16.94412 40.47727 30021 ft 497 kts 283°
2026-05-04 14:38 -16.92821 40.40694 30026 ft 497 kts 283°
2026-05-04 14:38 -16.91227 40.33667 30021 ft 498 kts 283°
2026-05-04 14:39 -16.89635 40.26688 30023 ft 498 kts 284°
2026-05-04 14:39 -16.88029 40.19661 30019 ft 497 kts 284°
2026-05-04 14:40 -16.85623 40.09146 30019 ft 496 kts 284°
2026-05-04 14:40 -16.84028 40.02187 30023 ft 496 kts 284°
2026-05-04 14:41 -16.82419 39.95179 30024 ft 496 kts 284°
2026-05-04 14:42 -16.79199 39.81187 30025 ft 497 kts 284°
2026-05-04 14:42 -16.77580 39.74172 30020 ft 498 kts 284°
2026-05-04 14:43 -16.75950 39.67118 30026 ft 499 kts 284°
2026-05-04 14:43 -16.74323 39.60084 30024 ft 500 kts 284°
2026-05-04 14:44 -16.72685 39.53020 30027 ft 500 kts 284°
2026-05-04 14:44 -16.71040 39.45978 30027 ft 500 kts 284°
2026-05-04 14:45 -16.69375 39.38933 30028 ft 499 kts 284°
2026-05-04 14:45 -16.67712 39.31901 30029 ft 499 kts 284°
2026-05-04 14:46 -16.66052 39.24881 30026 ft 499 kts 284°
2026-05-04 14:46 -16.64392 39.17866 30031 ft 498 kts 284°
2026-05-04 14:47 -16.62726 39.10842 30030 ft 498 kts 284°
2026-05-04 14:47 -16.61065 39.03846 30032 ft 498 kts 284°
2026-05-04 14:48 -16.59399 38.96840 30031 ft 498 kts 284°
2026-05-04 14:48 -16.57728 38.89824 30034 ft 498 kts 284°
2026-05-04 14:49 -16.56079 38.82808 30033 ft 499 kts 284°
2026-05-04 14:49 -16.54474 38.75816 30030 ft 499 kts 284°
2026-05-04 14:50 -16.52856 38.68788 30030 ft 499 kts 284°
2026-05-04 14:50 -16.51230 38.61764 30024 ft 499 kts 284°
2026-05-04 14:51 -16.49868 38.55891 30029 ft 498 kts 284°
2026-05-04 14:51 -16.48244 38.48874 30026 ft 498 kts 284°
2026-05-04 14:52 -16.46797 38.41816 30028 ft 498 kts 282°
2026-05-04 14:52 -16.45416 38.34741 30027 ft 498 kts 282°
2026-05-04 14:53 -16.44004 38.27682 30024 ft 498 kts 283°
2026-05-04 14:53 -16.42575 38.20631 30031 ft 497 kts 283°
2026-05-04 14:54 -16.41156 38.13636 30024 ft 497 kts 283°
2026-05-04 14:54 -16.39660 38.06606 30025 ft 497 kts 284°
2026-05-04 14:55 -16.38121 37.99558 30023 ft 496 kts 284°
2026-05-04 14:55 -16.36595 37.92550 30029 ft 496 kts 284°
2026-05-04 14:56 -16.35085 37.85585 30026 ft 496 kts 284°
2026-05-04 14:56 -16.33560 37.78549 30029 ft 496 kts 284°
2026-05-04 14:57 -16.32039 37.71548 30035 ft 496 kts 284°
2026-05-04 14:57 -16.30517 37.64553 30032 ft 495 kts 284°
2026-05-04 14:58 -16.28994 37.57560 30033 ft 495 kts 284°
2026-05-04 14:58 -16.27479 37.50625 30039 ft 495 kts 284°
2026-05-04 14:59 -16.25950 37.43633 30034 ft 495 kts 284°
2026-05-04 15:00 -16.23657 37.33168 30043 ft 494 kts 284°
2026-05-04 15:00 -16.22127 37.26200 30053 ft 494 kts 284°
2026-05-04 15:01 -16.19822 37.15724 30050 ft 494 kts 284°
2026-05-04 15:01 -16.18285 37.08752 30053 ft 494 kts 284°
2026-05-04 15:02 -16.16746 37.01784 30065 ft 495 kts 284°
2026-05-04 15:02 -16.15202 36.94806 30061 ft 495 kts 284°
2026-05-04 15:03 -16.13661 36.87850 30067 ft 495 kts 284°
2026-05-04 15:03 -16.12109 36.80855 30069 ft 496 kts 284°
2026-05-04 15:04 -16.10556 36.73867 30082 ft 496 kts 284°
2026-05-04 15:04 -16.08999 36.66876 30086 ft 496 kts 284°
2026-05-04 15:05 -16.07440 36.59887 30093 ft 496 kts 284°
2026-05-04 15:05 -16.05880 36.52898 30092 ft 497 kts 284°
2026-05-04 15:06 -16.04318 36.45917 30097 ft 497 kts 284°
2026-05-04 15:07 -16.01967 36.35429 30097 ft 497 kts 284°
2026-05-04 15:07 -16.00397 36.28438 30100 ft 497 kts 284°
2026-05-04 15:08 -15.98826 36.21450 30099 ft 496 kts 284°
2026-05-04 15:08 -15.97121 36.14498 30105 ft 496 kts 287°
2026-05-04 15:09 -15.95195 36.07618 30104 ft 496 kts 287°
2026-05-04 15:09 -15.93283 36.00735 30113 ft 496 kts 287°
2026-05-04 15:10 -15.90482 35.90424 30110 ft 497 kts 287°
2026-05-04 15:11 -15.87666 35.80051 30120 ft 498 kts 287°
2026-05-04 15:11 -15.85809 35.73126 30120 ft 498 kts 285°
2026-05-04 15:12 -15.84212 35.66117 30138 ft 499 kts 284°
2026-05-04 15:12 -15.82680 35.59081 30125 ft 500 kts 284°
2026-05-04 15:13 -15.81104 35.52034 30135 ft 500 kts 284°
2026-05-04 15:13 -15.79504 35.45012 30135 ft 500 kts 285°
2026-05-04 15:14 -15.77898 35.37998 30137 ft 500 kts 285°
2026-05-04 15:14 -15.76289 35.30968 30138 ft 500 kts 285°
2026-05-04 15:15 -15.74683 35.23958 30135 ft 500 kts 285°
2026-05-04 15:15 -15.73068 35.16917 30128 ft 500 kts 285°
2026-05-04 15:16 -15.70650 35.06396 30133 ft 500 kts 285°
2026-05-04 15:17 -15.68229 34.95882 30129 ft 500 kts 285°
2026-05-04 15:17 -15.66884 34.85167 30136 ft 502 kts 274°
2026-05-04 15:18 -15.66648 34.77910 30126 ft 502 kts 274°
2026-05-04 15:19 -15.66238 34.67053 30114 ft 502 kts 274°
2026-05-04 15:19 -15.65778 34.56197 30115 ft 502 kts 274°
2026-05-04 15:20 -15.65470 34.49008 30113 ft 502 kts 274°
2026-05-04 15:20 -15.65160 34.41763 30119 ft 502 kts 274°
2026-05-04 15:21 -15.64849 34.34564 30118 ft 502 kts 274°
2026-05-04 15:22 -15.64377 34.23707 30109 ft 502 kts 274°
2026-05-04 15:22 -15.63898 34.12844 30096 ft 502 kts 274°
2026-05-04 15:23 -15.63576 34.05591 30086 ft 502 kts 274°
2026-05-04 15:23 -15.63252 33.98367 30078 ft 502 kts 274°
2026-05-04 15:24 -15.62566 33.83897 30068 ft 502 kts 274°
2026-05-04 15:25 -15.62220 33.76674 30065 ft 501 kts 274°
2026-05-04 15:26 -15.61699 33.65836 30061 ft 501 kts 274°
2026-05-04 15:26 -15.61191 33.55013 30054 ft 501 kts 274°
2026-05-04 15:27 -15.60688 33.44190 30052 ft 501 kts 274°
2026-05-04 15:28 -15.60176 33.33351 30046 ft 501 kts 274°
2026-05-04 15:29 -15.59659 33.22531 30042 ft 501 kts 274°
2026-05-04 15:30 -15.58432 32.97260 30028 ft 501 kts 274°
2026-05-04 15:31 -15.57923 32.86440 30033 ft 501 kts 274°
2026-05-04 15:32 -15.57069 32.68453 30023 ft 501 kts 274°
2026-05-04 15:34 -15.56234 32.50422 30026 ft 500 kts 274°
2026-05-04 15:34 -15.55726 32.39592 30018 ft 501 kts 273°
2026-05-04 15:35 -15.55210 32.28773 30016 ft 501 kts 273°
2026-05-04 15:36 -15.54691 32.17955 30007 ft 501 kts 273°
2026-05-04 15:36 -15.54340 32.10724 30009 ft 502 kts 273°
2026-05-04 15:37 -15.54048 32.04725 30010 ft 502 kts 273°
2026-05-04 15:37 -15.53694 31.97497 30009 ft 502 kts 273°
2026-05-04 15:38 -15.53336 31.90262 30012 ft 502 kts 274°
2026-05-04 15:38 -15.52978 31.83042 30008 ft 501 kts 273°
2026-05-04 15:39 -15.52617 31.75833 30005 ft 500 kts 274°
2026-05-04 15:40 -15.52060 31.65087 30007 ft 499 kts 274°
2026-05-04 15:40 -15.51674 31.57912 30010 ft 498 kts 274°
2026-05-04 15:41 -15.51287 31.50739 30006 ft 498 kts 274°
2026-05-04 15:41 -15.50900 31.43576 30003 ft 498 kts 274°
2026-05-04 15:42 -15.50511 31.36400 30009 ft 498 kts 274°
2026-05-04 15:42 -15.50118 31.29184 30015 ft 499 kts 274°
2026-05-04 15:43 -15.49726 31.22061 30022 ft 500 kts 274°
2026-05-04 15:43 -15.49328 31.14850 30022 ft 500 kts 274°
2026-05-04 15:44 -15.48929 31.07658 30025 ft 500 kts 274°
2026-05-04 15:44 -15.48527 31.00469 30022 ft 500 kts 274°
2026-05-04 15:45 -15.48122 30.93269 30022 ft 499 kts 274°
2026-05-04 15:45 -15.47717 30.86087 30026 ft 499 kts 274°
2026-05-04 15:46 -15.47309 30.78907 30019 ft 500 kts 274°
2026-05-04 15:46 -15.46899 30.71726 30017 ft 500 kts 274°
2026-05-04 15:47 -15.46492 30.64525 30008 ft 497 kts 274°
2026-05-04 15:47 -15.46092 30.57422 30002 ft 491 kts 274°
2026-05-04 15:48 -15.45689 30.50344 30018 ft 493 kts 274°
2026-05-04 15:48 -15.45077 30.39664 30000 ft 493 kts 273°
2026-05-04 15:49 -15.44666 30.32550 30012 ft 496 kts 274°
2026-05-04 15:49 -15.44252 30.25448 30007 ft 495 kts 273°
2026-05-04 15:50 -15.43834 30.18308 30006 ft 496 kts 273°
2026-05-04 15:50 -15.43413 30.11164 30012 ft 497 kts 273°
2026-05-04 15:51 -15.42990 30.04011 30008 ft 498 kts 273°
2026-05-04 15:51 -15.42565 29.96855 30001 ft 497 kts 273°
2026-05-04 15:52 -15.42137 29.89685 30007 ft 500 kts 273°
2026-05-04 15:52 -15.41704 29.82488 30014 ft 507 kts 273°
2026-05-04 15:53 -15.41259 29.75117 30003 ft 510 kts 273°
2026-05-04 15:53 -15.40812 29.67770 30000 ft 511 kts 273°
2026-05-04 15:54 -15.40364 29.60437 30002 ft 510 kts 273°
2026-05-04 15:54 -15.39916 29.53144 30007 ft 511 kts 273°
2026-05-04 15:55 -15.39462 29.45787 30010 ft 511 kts 273°
2026-05-04 15:55 -15.39006 29.38436 30017 ft 511 kts 273°
2026-05-04 15:56 -15.38548 29.31101 30011 ft 510 kts 273°
2026-05-04 15:56 -15.38088 29.23785 30012 ft 507 kts 274°
2026-05-04 15:57 -15.37630 29.16521 30019 ft 504 kts 274°
2026-05-04 15:57 -15.37171 29.09283 30021 ft 503 kts 274°
2026-05-04 15:58 -15.36711 29.02054 30025 ft 503 kts 274°
2026-05-04 15:58 -15.36248 28.94827 30022 ft 503 kts 274°
2026-05-04 15:59 -15.35783 28.87601 30024 ft 503 kts 274°
2026-05-04 15:59 -15.35315 28.80375 30021 ft 504 kts 274°
2026-05-04 16:00 -15.34843 28.73113 30020 ft 505 kts 274°
2026-05-04 16:00 -15.34369 28.65848 30018 ft 505 kts 274°
2026-05-04 16:01 -15.33892 28.58580 30089 ft 506 kts 275°
2026-05-04 16:01 -15.33412 28.51314 30016 ft 505 kts 274°
2026-05-04 16:02 -15.33085 28.44053 30021 ft 505 kts 268°
2026-05-04 16:03 -15.34617 28.33355 30027 ft 503 kts 257°
2026-05-04 16:03 -15.36230 28.26264 30015 ft 502 kts 257°
2026-05-04 16:04 -15.37758 28.19447 30013 ft 502 kts 257°
2026-05-04 16:04 -15.40078 28.08857 30009 ft 501 kts 257°
2026-05-04 16:05 -15.41609 28.01814 30005 ft 501 kts 257°
2026-05-04 16:06 -15.43891 27.91307 30000 ft 500 kts 257°
2026-05-04 16:07 -15.46943 27.77229 30002 ft 501 kts 257°
2026-05-04 16:08 -15.49991 27.63123 29995 ft 502 kts 257°
2026-05-04 16:09 -15.53795 27.45455 29997 ft 502 kts 257°
2026-05-04 16:10 -15.56821 27.31349 29990 ft 502 kts 258°
2026-05-04 16:11 -15.59853 27.17173 29991 ft 502 kts 258°
2026-05-04 16:12 -15.64362 26.95994 29991 ft 501 kts 258°
2026-05-04 16:13 -15.67349 26.81910 29986 ft 501 kts 258°
2026-05-04 16:14 -15.70206 26.67774 29979 ft 500 kts 266°
2026-05-04 16:15 -15.68195 26.57301 29986 ft 500 kts 296°
2026-05-04 16:16 -15.64969 26.50914 29989 ft 501 kts 297°
2026-05-04 16:17 -15.56996 26.34829 29988 ft 502 kts 296°
2026-05-04 16:18 -15.50687 26.21913 29992 ft 502 kts 296°
2026-05-04 16:19 -15.42771 26.05769 30000 ft 502 kts 296°
2026-05-04 16:20 -15.34811 25.89643 29990 ft 503 kts 297°
2026-05-04 16:22 -15.26676 25.73598 29986 ft 503 kts 297°
2026-05-04 16:23 -15.16947 25.54379 29985 ft 503 kts 297°
2026-05-04 16:25 -15.07184 25.35141 29981 ft 503 kts 297°
2026-05-04 16:26 -14.96320 25.13795 29988 ft 503 kts 297°
2026-05-04 16:28 -14.88171 24.97823 29979 ft 498 kts 297°
2026-05-04 16:29 -14.76893 24.75887 29978 ft 496 kts 299°
2026-05-04 16:31 -14.68036 24.60534 29969 ft 498 kts 300°
2026-05-04 16:32 -14.57493 24.42046 29966 ft 498 kts 300°
2026-05-04 16:33 -14.50456 24.29732 29965 ft 498 kts 300°
2026-05-04 16:34 -14.45158 24.20526 29965 ft 498 kts 301°
2026-05-04 16:35 -14.34177 24.02340 29953 ft 498 kts 301°
2026-05-04 16:36 -14.28725 23.93283 29952 ft 498 kts 301°
2026-05-04 16:37 -14.23246 23.84184 29956 ft 498 kts 301°
2026-05-04 16:38 -14.15923 23.72044 29950 ft 499 kts 301°
2026-05-04 16:39 -14.06751 23.56866 29946 ft 499 kts 301°
2026-05-04 16:40 -13.99400 23.44721 29950 ft 499 kts 301°
2026-05-04 16:41 -13.90218 23.29574 29947 ft 499 kts 301°
2026-05-04 16:43 -13.81017 23.14424 29948 ft 499 kts 301°
2026-05-04 16:43 -13.75494 23.05343 29943 ft 500 kts 301°
2026-05-04 16:45 -13.64433 22.87186 29946 ft 501 kts 301°
2026-05-04 16:46 -13.55176 22.72020 29943 ft 501 kts 301°
2026-05-04 16:47 -13.47754 22.59880 29945 ft 502 kts 301°
2026-05-04 16:48 -13.40319 22.47735 29947 ft 502 kts 301°
2026-05-04 16:49 -13.32872 22.35587 29945 ft 503 kts 301°
2026-05-04 16:50 -13.25419 22.23446 29948 ft 503 kts 302°
2026-05-04 16:51 -13.19824 22.14343 29950 ft 503 kts 302°
2026-05-04 16:52 -13.12437 22.02335 29946 ft 503 kts 302°
2026-05-04 16:53 -13.06769 21.93263 29946 ft 503 kts 302°
2026-05-04 16:54 -12.99128 21.81246 29947 ft 503 kts 302°
2026-05-04 16:55 -12.87699 21.63220 29949 ft 504 kts 302°
2026-05-04 16:56 -12.78147 21.48182 29949 ft 504 kts 302°
2026-05-04 16:57 -12.72408 21.39157 29951 ft 504 kts 302°
2026-05-04 16:58 -12.64753 21.27135 29954 ft 504 kts 303°
2026-05-04 17:00 -12.53232 21.09071 29954 ft 505 kts 303°
2026-05-04 17:01 -12.43612 20.94015 29953 ft 506 kts 303°
2026-05-04 17:02 -12.35906 20.81971 29956 ft 506 kts 303°
2026-05-04 17:03 -12.30117 20.72933 29959 ft 506 kts 303°
2026-05-04 17:03 -12.24324 20.63898 29959 ft 507 kts 303°
2026-05-04 17:04 -12.16589 20.51848 29962 ft 507 kts 303°
2026-05-04 17:05 -12.08863 20.39826 29967 ft 507 kts 303°
2026-05-04 17:06 -12.03049 20.30788 29970 ft 508 kts 303°
2026-05-04 17:07 -11.97865 20.22737 29971 ft 508 kts 303°
2026-05-04 17:07 -11.93327 20.15696 29971 ft 508 kts 303°
2026-05-04 17:08 -11.87525 20.06698 29976 ft 508 kts 303°
2026-05-04 17:09 -11.83633 20.00667 29976 ft 508 kts 303°
2026-05-04 17:09 -11.79747 19.94648 29975 ft 508 kts 303°
2026-05-04 17:10 -11.71802 19.78657 29976 ft 508 kts 293°
2026-05-04 17:11 -11.69035 19.72022 29979 ft 508 kts 293°
2026-05-04 17:12 -11.64828 19.62089 29981 ft 509 kts 294°
2026-05-04 17:13 -11.58245 19.46652 29972 ft 509 kts 294°
2026-05-04 17:14 -11.52596 19.33415 29974 ft 510 kts 294°
2026-05-04 17:15 -11.48345 19.23464 29973 ft 510 kts 294°
2026-05-04 17:16 -11.42675 19.10212 29965 ft 510 kts 294°
2026-05-04 17:17 -11.37001 18.96968 29962 ft 510 kts 294°
2026-05-04 17:18 -11.31321 18.83729 29958 ft 510 kts 294°
2026-05-04 17:19 -11.25649 18.70528 29955 ft 510 kts 294°
2026-05-04 17:20 -11.19956 18.57295 29953 ft 510 kts 294°
2026-05-04 17:20 -11.15684 18.47379 29958 ft 510 kts 294°
2026-05-04 17:21 -11.09964 18.34119 29952 ft 511 kts 294°
2026-05-04 17:22 -11.07105 18.27498 29952 ft 511 kts 294°
2026-05-04 17:23 -11.01386 18.14266 29951 ft 511 kts 294°
2026-05-04 17:24 -10.97086 18.04329 29951 ft 511 kts 294°
2026-05-04 17:25 -10.91345 17.91080 29949 ft 512 kts 294°
2026-05-04 17:26 -10.85602 17.77844 29943 ft 512 kts 294°
2026-05-04 17:27 -10.78404 17.61279 29944 ft 512 kts 294°
2026-05-04 17:28 -10.72631 17.48014 29946 ft 512 kts 294°
2026-05-04 17:29 -10.63977 17.28163 29944 ft 512 kts 295°
2026-05-04 17:31 -10.56748 17.11613 29945 ft 512 kts 295°
2026-05-04 17:32 -10.49516 16.95083 29946 ft 512 kts 295°
2026-05-04 17:33 -10.43745 16.81911 29946 ft 512 kts 295°
2026-05-04 17:34 -10.37952 16.68706 29954 ft 512 kts 295°
2026-05-04 17:35 -10.30705 16.52211 29951 ft 511 kts 295°
2026-05-04 17:36 -10.27805 16.45617 29956 ft 511 kts 295°
2026-05-04 17:36 -10.24907 16.39033 29961 ft 511 kts 295°
2026-05-04 17:37 -10.22011 16.32455 29964 ft 510 kts 295°
2026-05-04 17:37 -10.19115 16.25884 29967 ft 510 kts 295°
2026-05-04 17:38 -10.16220 16.19317 29965 ft 510 kts 295°
2026-05-04 17:38 -10.13323 16.12751 29967 ft 510 kts 295°
2026-05-04 17:39 -10.08972 16.02894 29967 ft 509 kts 295°
2026-05-04 17:39 -10.06076 15.96347 29966 ft 509 kts 295°
2026-05-04 17:40 -10.03177 15.89794 29966 ft 509 kts 295°
2026-05-04 17:40 -10.00272 15.83230 29963 ft 509 kts 295°
2026-05-04 17:41 -9.97372 15.76678 29958 ft 509 kts 295°
2026-05-04 17:41 -9.94484 15.70160 29962 ft 509 kts 295°
2026-05-04 17:42 -9.91580 15.63608 29957 ft 509 kts 295°
2026-05-04 17:42 -9.88673 15.57054 29954 ft 510 kts 295°
2026-05-04 17:43 -9.85768 15.50508 29954 ft 510 kts 295°
2026-05-04 17:43 -9.82853 15.43943 29953 ft 510 kts 295°
2026-05-04 17:44 -9.79948 15.37405 29954 ft 510 kts 295°
2026-05-04 17:44 -9.77035 15.30854 29950 ft 509 kts 295°
2026-05-04 17:45 -9.74125 15.24312 29950 ft 509 kts 295°
2026-05-04 17:45 -9.71213 15.17770 29945 ft 509 kts 295°
2026-05-04 17:46 -9.68296 15.11219 29940 ft 509 kts 295°
2026-05-04 17:46 -9.65381 15.04679 29939 ft 510 kts 295°
2026-05-04 17:47 -9.62461 14.98132 29930 ft 510 kts 295°
2026-05-04 17:47 -9.59536 14.91577 29927 ft 510 kts 295°
2026-05-04 17:48 -9.56623 14.85049 29923 ft 510 kts 295°
2026-05-04 17:48 -9.53714 14.78533 29915 ft 510 kts 295°
2026-05-04 17:49 -9.50789 14.71986 29909 ft 510 kts 295°
2026-05-04 17:49 -9.47868 14.65451 29902 ft 510 kts 295°
2026-05-04 17:50 -9.44936 14.58897 29898 ft 511 kts 295°
2026-05-04 17:50 -9.42012 14.52363 29892 ft 511 kts 295°
2026-05-04 17:51 -9.39066 14.45784 29892 ft 511 kts 295°
2026-05-04 17:51 -9.36133 14.39238 29889 ft 511 kts 295°
2026-05-04 17:52 -9.33189 14.32674 29882 ft 511 kts 295°
2026-05-04 17:52 -9.30252 14.26126 29878 ft 511 kts 295°
2026-05-04 17:53 -9.27314 14.19582 29876 ft 511 kts 295°
2026-05-04 17:53 -9.24369 14.13022 29875 ft 511 kts 295°
2026-05-04 17:54 -9.21426 14.06473 29879 ft 511 kts 295°
2026-05-04 17:54 -9.18481 13.99924 29872 ft 512 kts 295°
2026-05-04 17:55 -9.15528 13.93359 29877 ft 512 kts 295°
2026-05-04 17:55 -9.12581 13.86812 29879 ft 512 kts 295°
2026-05-04 17:56 -9.09625 13.80249 29877 ft 512 kts 295°
2026-05-04 17:56 -9.06670 13.73691 29875 ft 513 kts 295°
2026-05-04 17:57 -9.03707 13.67120 29873 ft 513 kts 295°
2026-05-04 17:57 -9.00750 13.60565 29880 ft 513 kts 295°
2026-05-04 17:58 -8.97778 13.53981 29881 ft 513 kts 295°
2026-05-04 17:58 -8.94832 13.47458 29878 ft 513 kts 295°
2026-05-04 17:59 -8.92366 13.42000 29882 ft 513 kts 295°
2026-05-04 18:00 -8.87909 13.32140 29885 ft 512 kts 295°
2026-05-04 18:00 -8.86204 13.27873 29871 ft 512 kts 284°
2026-05-04 18:00 -8.85811 13.25385 29890 ft 511 kts 273°
2026-05-04 18:00 -8.85995 13.21805 29888 ft 512 kts 259°
2026-05-04 18:01 -8.87003 13.18367 29888 ft 512 kts 247°
2026-05-04 18:01 -8.89921 13.11790 29887 ft 513 kts 246°
2026-05-04 18:02 -8.94264 13.01880 29913 ft 515 kts 247°
2026-05-04 18:02 -8.97095 12.95223 29916 ft 515 kts 247°
2026-05-04 18:03 -8.99913 12.88553 29929 ft 515 kts 247°
2026-05-04 18:03 -9.02728 12.81892 29928 ft 515 kts 247°
2026-05-04 18:04 -9.05524 12.75283 29930 ft 514 kts 247°
2026-05-04 18:05 -9.09736 12.65326 29925 ft 513 kts 247°
2026-05-04 18:05 -9.12560 12.58645 29934 ft 513 kts 247°
2026-05-04 18:06 -9.16745 12.48734 29934 ft 513 kts 247°
2026-05-04 18:06 -9.19542 12.42105 29935 ft 513 kts 247°
2026-05-04 18:07 -9.22344 12.35460 29935 ft 513 kts 247°
2026-05-04 18:07 -9.25141 12.28826 29936 ft 514 kts 247°
2026-05-04 18:08 -9.27943 12.22173 29933 ft 514 kts 247°
2026-05-04 18:08 -9.30753 12.15497 29937 ft 515 kts 247°
2026-05-04 18:09 -9.36370 12.02141 29940 ft 516 kts 248°
2026-05-04 18:10 -9.39180 11.95452 29938 ft 516 kts 248°
2026-05-04 18:10 -9.41985 11.88772 29940 ft 516 kts 248°
2026-05-04 18:11 -9.44779 11.82067 29940 ft 516 kts 248°
2026-05-04 18:11 -9.47557 11.75373 29938 ft 516 kts 248°
2026-05-04 18:12 -9.50338 11.68672 29942 ft 516 kts 248°
2026-05-04 18:12 -9.53116 11.61978 29944 ft 516 kts 248°
2026-05-04 18:13 -9.55900 11.55266 29942 ft 516 kts 248°
2026-05-04 18:14 -9.60069 11.45205 29946 ft 516 kts 248°
2026-05-04 18:14 -9.62842 11.38510 29946 ft 517 kts 248°
2026-05-04 18:15 -9.68428 11.25112 29949 ft 518 kts 248°
2026-05-04 18:16 -9.71244 11.18361 29947 ft 518 kts 248°
2026-05-04 18:16 -9.74036 11.11658 29951 ft 518 kts 248°
2026-05-04 18:17 -9.78251 11.01524 29955 ft 518 kts 248°
2026-05-04 18:18 -9.82432 10.91460 29954 ft 520 kts 248°
2026-05-04 18:18 -9.85255 10.84663 29953 ft 520 kts 248°
2026-05-04 18:19 -9.89461 10.74526 29959 ft 520 kts 248°
2026-05-04 18:19 -9.92249 10.67801 29954 ft 521 kts 248°
2026-05-04 18:20 -9.95057 10.61024 29957 ft 521 kts 248°
2026-05-04 18:20 -9.97859 10.54256 29957 ft 519 kts 248°
2026-05-04 18:21 -10.00656 10.47498 29958 ft 518 kts 248°
2026-05-04 18:21 -10.03438 10.40767 29960 ft 517 kts 248°
2026-05-04 18:22 -10.06218 10.34042 29963 ft 517 kts 248°
2026-05-04 18:22 -10.09000 10.27303 29965 ft 517 kts 248°
2026-05-04 18:23 -10.11777 10.20573 29962 ft 517 kts 248°
2026-05-04 18:23 -10.14548 10.13853 29960 ft 517 kts 248°
2026-05-04 18:24 -10.17305 10.07163 29961 ft 517 kts 248°
2026-05-04 18:24 -10.20079 10.00429 29962 ft 517 kts 248°
2026-05-04 18:25 -10.22847 9.93703 29964 ft 516 kts 248°
2026-05-04 18:25 -10.25614 9.86976 29962 ft 516 kts 248°
2026-05-04 18:26 -10.28376 9.80255 29966 ft 516 kts 248°
2026-05-04 18:26 -10.31134 9.73541 29963 ft 515 kts 248°
2026-05-04 18:27 -10.33893 9.66820 29964 ft 515 kts 248°
2026-05-04 18:27 -10.36646 9.60107 29972 ft 515 kts 248°
2026-05-04 18:28 -10.39406 9.53373 29972 ft 516 kts 248°
2026-05-04 18:28 -10.42160 9.46650 29969 ft 516 kts 248°
2026-05-04 18:29 -10.44909 9.39935 29976 ft 515 kts 248°
2026-05-04 18:29 -10.47659 9.33211 29970 ft 514 kts 248°
2026-05-04 18:30 -10.51766 9.23163 29976 ft 515 kts 248°
2026-05-04 18:31 -10.54496 9.16476 29976 ft 515 kts 248°
2026-05-04 18:31 -10.57260 9.09702 29976 ft 517 kts 248°
2026-05-04 18:32 -10.59999 9.02987 29982 ft 518 kts 248°
2026-05-04 18:32 -10.62771 8.96181 29976 ft 517 kts 248°
2026-05-04 18:33 -10.65520 8.89432 29975 ft 516 kts 248°
2026-05-04 18:33 -10.68242 8.82742 29978 ft 515 kts 248°
2026-05-04 18:34 -10.70972 8.76030 29979 ft 513 kts 248°
2026-05-04 18:34 -10.73696 8.69328 29980 ft 512 kts 248°
2026-05-04 18:35 -10.76431 8.62588 29981 ft 512 kts 248°
2026-05-04 18:35 -10.79150 8.55887 29980 ft 513 kts 248°
2026-05-04 18:36 -10.81851 8.49227 29984 ft 513 kts 248°
2026-05-04 18:36 -10.84573 8.42509 29982 ft 514 kts 248°
2026-05-04 18:37 -10.87292 8.35790 29986 ft 514 kts 248°
2026-05-04 18:37 -10.90011 8.29071 29986 ft 514 kts 248°
2026-05-04 18:38 -10.92727 8.22352 29987 ft 513 kts 248°
2026-05-04 18:38 -10.95440 8.15637 29986 ft 513 kts 248°
2026-05-04 18:39 -10.98157 8.08908 29986 ft 512 kts 248°
2026-05-04 18:39 -11.00855 8.02220 29987 ft 512 kts 248°
2026-05-04 18:40 -11.03556 7.95510 29989 ft 512 kts 248°
2026-05-04 18:40 -11.06254 7.88797 29988 ft 512 kts 248°
2026-05-04 18:41 -11.08946 7.82099 29990 ft 512 kts 248°
2026-05-04 18:41 -11.11642 7.75384 29990 ft 511 kts 248°
2026-05-04 18:42 -11.14326 7.68693 29989 ft 511 kts 248°
2026-05-04 18:42 -11.16999 7.62026 29992 ft 511 kts 248°
2026-05-04 18:43 -11.19697 7.55291 29994 ft 510 kts 249°
2026-05-04 18:43 -11.22373 7.48606 29995 ft 509 kts 248°
2026-05-04 18:44 -11.25044 7.41926 29993 ft 509 kts 248°
2026-05-04 18:44 -11.27687 7.35314 29996 ft 509 kts 249°
2026-05-04 18:45 -11.30357 7.28631 29996 ft 508 kts 248°
2026-05-04 18:45 -11.33018 7.21964 29996 ft 508 kts 249°
2026-05-04 18:46 -11.35678 7.15293 29998 ft 508 kts 249°
2026-05-04 18:46 -11.38328 7.08644 29996 ft 507 kts 249°
2026-05-04 18:47 -11.40987 7.01967 30000 ft 507 kts 249°
2026-05-04 18:47 -11.43634 6.95314 29999 ft 507 kts 249°
2026-05-04 18:48 -11.46282 6.88657 30001 ft 506 kts 249°
2026-05-04 18:48 -11.48472 6.83144 30001 ft 505 kts 249°
2026-05-04 18:49 -11.51108 6.76504 30003 ft 504 kts 249°
2026-05-04 18:49 -11.53734 6.69887 30002 ft 504 kts 249°
2026-05-04 18:50 -11.56360 6.63254 30008 ft 505 kts 249°
2026-05-04 18:50 -11.58993 6.56613 30002 ft 505 kts 249°
2026-05-04 18:51 -11.61626 6.49966 29999 ft 503 kts 249°
2026-05-04 18:51 -11.64233 6.43377 30000 ft 501 kts 249°
2026-05-04 18:52 -11.66839 6.36782 30002 ft 500 kts 249°
2026-05-04 18:52 -11.69441 6.30193 30007 ft 500 kts 249°
2026-05-04 18:53 -11.72034 6.23623 30006 ft 500 kts 249°
2026-05-04 18:53 -11.74633 6.17031 30004 ft 499 kts 249°
2026-05-04 18:54 -11.77222 6.10463 30009 ft 500 kts 249°
2026-05-04 18:54 -11.79804 6.03906 30006 ft 501 kts 249°
2026-05-04 18:55 -11.82407 5.97287 30006 ft 499 kts 249°
2026-05-04 18:55 -11.86281 5.87434 30007 ft 496 kts 249°
2026-05-04 18:56 -11.88821 5.80964 30002 ft 491 kts 249°
2026-05-04 18:56 -11.91361 5.74490 30015 ft 494 kts 249°
2026-05-04 18:57 -11.93902 5.68010 30015 ft 491 kts 249°
2026-05-04 18:57 -11.96453 5.61497 30012 ft 496 kts 249°
2026-05-04 18:58 -11.98995 5.55004 30002 ft 491 kts 249°
2026-05-04 18:58 -12.01523 5.48540 30013 ft 490 kts 249°
2026-05-04 18:59 -12.04057 5.42058 30005 ft 489 kts 249°
2026-05-04 18:59 -12.06575 5.35611 30019 ft 493 kts 249°
2026-05-04 19:00 -12.09100 5.29139 30006 ft 488 kts 249°
2026-05-04 19:00 -12.11615 5.22689 30019 ft 489 kts 249°
2026-05-04 19:01 -12.14125 5.16246 30015 ft 489 kts 249°
2026-05-04 19:01 -12.16644 5.09776 30010 ft 488 kts 249°
2026-05-04 19:02 -12.19162 5.03302 30022 ft 491 kts 249°
2026-05-04 19:02 -12.21681 4.96836 30007 ft 487 kts 249°
2026-05-04 19:03 -12.24213 4.90381 30019 ft 490 kts 249°
2026-05-04 19:03 -12.26738 4.83947 30024 ft 488 kts 249°
2026-05-04 19:04 -12.29271 4.77476 30019 ft 491 kts 249°
2026-05-04 19:04 -12.31797 4.71015 30014 ft 489 kts 249°
2026-05-04 19:05 -12.34326 4.64541 30026 ft 491 kts 249°
2026-05-04 19:05 -12.36841 4.58099 30016 ft 489 kts 249°
2026-05-04 19:06 -12.39377 4.51597 30024 ft 493 kts 249°
2026-05-04 19:06 -12.41924 4.45059 30029 ft 496 kts 249°
2026-05-04 19:07 -12.44470 4.38522 30018 ft 495 kts 249°
2026-05-04 19:07 -12.47011 4.31988 30021 ft 494 kts 249°
2026-05-04 19:08 -12.49543 4.25427 30019 ft 494 kts 250°
2026-05-04 19:08 -12.52062 4.18878 30024 ft 495 kts 250°
2026-05-04 19:09 -12.54563 4.12370 30024 ft 495 kts 249°
2026-05-04 19:09 -12.57084 4.05808 30021 ft 496 kts 250°
2026-05-04 19:10 -12.59607 3.99238 30023 ft 495 kts 250°
2026-05-04 19:10 -12.62125 3.92678 30027 ft 495 kts 250°
2026-05-04 19:11 -12.64644 3.86110 30027 ft 496 kts 250°
2026-05-04 19:11 -12.67158 3.79548 30026 ft 496 kts 250°
2026-05-04 19:12 -12.70945 3.69652 30029 ft 498 kts 250°
2026-05-04 19:13 -12.73473 3.63042 30031 ft 499 kts 250°
2026-05-04 19:13 -12.76004 3.56415 30027 ft 498 kts 250°
2026-05-04 19:14 -12.78524 3.49813 30028 ft 496 kts 250°
2026-05-04 19:14 -12.81029 3.43246 30035 ft 495 kts 250°
2026-05-04 19:15 -12.83535 3.36665 30035 ft 494 kts 250°
2026-05-04 19:15 -12.86031 3.30110 30031 ft 493 kts 250°
2026-05-04 19:16 -12.88520 3.23566 30037 ft 493 kts 250°
2026-05-04 19:16 -12.91004 3.17032 30035 ft 493 kts 250°
2026-05-04 19:17 -12.93495 3.10470 30038 ft 493 kts 250°
2026-05-04 19:17 -12.95981 3.03918 30035 ft 494 kts 250°
2026-05-04 19:18 -12.98473 2.97343 30034 ft 495 kts 250°
2026-05-04 19:18 -13.00969 2.90754 30039 ft 496 kts 250°
2026-05-04 19:19 -13.03466 2.84155 30037 ft 497 kts 250°
2026-05-04 19:19 -13.05962 2.77555 30038 ft 496 kts 250°
2026-05-04 19:20 -13.08448 2.70973 30039 ft 494 kts 250°
2026-05-04 19:20 -13.10926 2.64408 30040 ft 494 kts 250°
2026-05-04 19:21 -13.13404 2.57838 30039 ft 493 kts 250°
2026-05-04 19:21 -13.15860 2.51320 30037 ft 492 kts 250°
2026-05-04 19:22 -13.18326 2.44767 30042 ft 492 kts 250°
2026-05-04 19:22 -13.20789 2.38219 30045 ft 493 kts 250°
2026-05-04 19:23 -13.23253 2.31661 30045 ft 493 kts 250°
2026-05-04 19:23 -13.25720 2.25092 30043 ft 494 kts 250°
2026-05-04 19:24 -13.28193 2.18498 30047 ft 494 kts 250°
2026-05-04 19:24 -13.30652 2.11938 30049 ft 493 kts 250°
2026-05-04 19:25 -13.33116 2.05358 30047 ft 492 kts 250°
2026-05-04 19:25 -13.35568 1.98804 30047 ft 492 kts 250°
2026-05-04 19:26 -13.38016 1.92253 30049 ft 491 kts 250°
2026-05-04 19:26 -13.40458 1.85716 30052 ft 491 kts 250°
2026-05-04 19:27 -13.42896 1.79181 30049 ft 491 kts 250°
2026-05-04 19:27 -13.45341 1.72623 30051 ft 491 kts 250°
2026-05-04 19:28 -13.47782 1.66070 30054 ft 491 kts 250°
2026-05-04 19:28 -13.50224 1.59507 30050 ft 492 kts 250°
2026-05-04 19:29 -13.52664 1.52944 30051 ft 492 kts 250°
2026-05-04 19:29 -13.55085 1.46426 30055 ft 492 kts 250°
2026-05-04 19:30 -13.57518 1.39869 30048 ft 491 kts 250°
2026-05-04 19:30 -13.59969 1.33259 30053 ft 491 kts 250°
2026-05-04 19:31 -13.62377 1.26760 30057 ft 490 kts 250°
2026-05-04 19:31 -13.64803 1.20204 30056 ft 490 kts 250°
2026-05-04 19:32 -13.67224 1.13656 30055 ft 490 kts 250°
2026-05-04 19:32 -13.69649 1.07092 30056 ft 491 kts 251°
2026-05-04 19:33 -13.72075 1.00520 30056 ft 491 kts 251°
2026-05-04 19:33 -13.74498 0.93949 30061 ft 491 kts 251°
2026-05-04 19:34 -13.76920 0.87374 30060 ft 492 kts 251°
2026-05-04 19:34 -13.79338 0.80802 30061 ft 492 kts 251°
2026-05-04 19:35 -13.81761 0.74215 30061 ft 492 kts 251°
2026-05-04 19:35 -13.83770 0.68745 30059 ft 492 kts 251°
2026-05-04 19:36 -13.86191 0.62151 30064 ft 492 kts 251°
2026-05-04 19:36 -13.88609 0.55558 30064 ft 491 kts 251°
2026-05-04 19:37 -13.91017 0.48986 30061 ft 491 kts 250°
2026-05-04 19:37 -13.93420 0.42421 30067 ft 491 kts 251°
2026-05-04 19:38 -13.95828 0.35835 30066 ft 491 kts 250°
2026-05-04 19:38 -13.98232 0.29255 30066 ft 491 kts 250°
2026-05-04 19:39 -14.00637 0.22668 30067 ft 492 kts 250°
2026-05-04 19:39 -14.03044 0.16067 30070 ft 492 kts 251°
2026-05-04 19:40 -14.05439 0.09491 30068 ft 490 kts 250°
2026-05-04 19:40 -14.07832 0.02917 30068 ft 489 kts 250°
2026-05-04 19:41 -14.10214 -0.03633 30069 ft 488 kts 251°
2026-05-04 19:41 -14.12600 -0.10192 30068 ft 489 kts 251°
2026-05-04 19:42 -14.14986 -0.16759 30068 ft 490 kts 251°
2026-05-04 19:42 -14.17376 -0.23346 30073 ft 491 kts 251°
2026-05-04 19:43 -14.19767 -0.29943 30072 ft 492 kts 251°
2026-05-04 19:43 -14.22160 -0.36551 30072 ft 493 kts 251°
2026-05-04 19:44 -14.24556 -0.43172 30070 ft 492 kts 251°
2026-05-04 19:44 -14.26947 -0.49786 30074 ft 492 kts 251°
2026-05-04 19:45 -14.29313 -0.56339 30073 ft 491 kts 251°
2026-05-04 19:45 -14.31686 -0.62916 30071 ft 489 kts 251°
2026-05-04 19:46 -14.34052 -0.69483 30074 ft 488 kts 251°
2026-05-04 19:46 -14.36407 -0.76023 30076 ft 487 kts 251°
2026-05-04 19:47 -14.38765 -0.82580 30079 ft 488 kts 251°
2026-05-04 19:47 -14.41129 -0.89157 30079 ft 488 kts 251°
2026-05-04 19:48 -14.43484 -0.95718 30080 ft 488 kts 251°
2026-05-04 19:48 -14.45840 -1.02287 30075 ft 488 kts 251°
2026-05-04 19:49 -14.48196 -1.08864 30076 ft 488 kts 251°
2026-05-04 19:49 -14.50548 -1.15435 30082 ft 488 kts 251°
2026-05-04 19:50 -14.52897 -1.22004 30077 ft 489 kts 251°
2026-05-04 19:50 -14.55246 -1.28582 30080 ft 489 kts 251°
2026-05-04 19:51 -14.57592 -1.35154 30083 ft 488 kts 251°
2026-05-04 19:51 -14.59938 -1.41733 30080 ft 487 kts 251°
2026-05-04 19:52 -14.62271 -1.48284 30084 ft 487 kts 251°
2026-05-04 19:52 -14.64609 -1.54856 30086 ft 487 kts 251°
2026-05-04 19:53 -14.66948 -1.61437 30086 ft 488 kts 251°
2026-05-04 19:53 -14.69284 -1.68018 30087 ft 488 kts 251°
2026-05-04 19:54 -14.71609 -1.74572 30088 ft 489 kts 251°
2026-05-04 19:54 -14.73946 -1.81165 30087 ft 490 kts 251°
2026-05-04 19:55 -14.76285 -1.87771 30086 ft 489 kts 251°
2026-05-04 19:55 -14.78621 -1.94376 30089 ft 488 kts 251°
2026-05-04 19:56 -14.80942 -2.00947 30089 ft 487 kts 251°
2026-05-04 19:56 -14.83268 -2.07539 30092 ft 487 kts 251°
2026-05-04 19:57 -14.85588 -2.14119 30091 ft 488 kts 251°
2026-05-04 19:57 -14.87909 -2.20708 30091 ft 488 kts 251°
2026-05-04 19:58 -14.90228 -2.27300 30093 ft 488 kts 251°
2026-05-04 19:58 -14.92544 -2.33890 30094 ft 488 kts 251°
2026-05-04 19:59 -14.94859 -2.40483 30099 ft 488 kts 251°
2026-05-04 19:59 -14.97181 -2.47101 30099 ft 489 kts 251°
2026-05-04 20:00 -14.99499 -2.53718 30095 ft 490 kts 251°
2026-05-04 20:00 -15.01799 -2.60290 30096 ft 489 kts 251°
2026-05-04 20:01 -15.04126 -2.66942 30102 ft 489 kts 251°
2026-05-04 20:01 -15.06424 -2.73521 30098 ft 489 kts 251°
2026-05-04 20:02 -15.08746 -2.80175 30099 ft 488 kts 251°
2026-05-04 20:02 -15.11031 -2.86732 30101 ft 488 kts 251°
2026-05-04 20:03 -15.13329 -2.93332 30101 ft 488 kts 251°
2026-05-04 20:03 -15.15635 -2.99961 30101 ft 489 kts 251°
2026-05-04 20:04 -15.17933 -3.06575 30099 ft 489 kts 251°
2026-05-04 20:04 -15.20237 -3.13213 30093 ft 489 kts 251°
2026-05-04 20:05 -15.22529 -3.19824 30101 ft 488 kts 251°
2026-05-04 20:05 -15.24818 -3.26430 30101 ft 487 kts 251°
2026-05-04 20:06 -15.27102 -3.33032 30101 ft 486 kts 251°
2026-05-04 20:06 -15.29384 -3.39634 30097 ft 486 kts 251°
2026-05-04 20:07 -15.31658 -3.46221 30095 ft 486 kts 251°
2026-05-04 20:07 -15.33934 -3.52822 30103 ft 486 kts 251°
2026-05-04 20:08 -15.36211 -3.59429 30102 ft 486 kts 251°
2026-05-04 20:08 -15.38480 -3.66021 30091 ft 486 kts 251°
2026-05-04 20:09 -15.40750 -3.72624 30099 ft 486 kts 251°
2026-05-04 20:09 -15.43015 -3.79222 30099 ft 487 kts 251°
2026-05-04 20:10 -15.45268 -3.85790 30100 ft 487 kts 251°
2026-05-04 20:10 -15.47533 -3.92400 30103 ft 487 kts 251°
2026-05-04 20:11 -15.49796 -3.99010 30095 ft 487 kts 251°
2026-05-04 20:11 -15.52050 -4.05600 30103 ft 487 kts 251°
2026-05-04 20:12 -15.54310 -4.12219 30100 ft 487 kts 251°
2026-05-04 20:12 -15.56585 -4.18887 30106 ft 487 kts 251°
2026-05-04 20:13 -15.58828 -4.25467 30106 ft 487 kts 251°
2026-05-04 20:13 -15.61078 -4.32077 30103 ft 487 kts 251°
2026-05-04 20:14 -15.63337 -4.38718 30107 ft 487 kts 251°
2026-05-04 20:14 -15.65593 -4.45360 30100 ft 488 kts 251°
2026-05-04 20:15 -15.67846 -4.52001 30110 ft 488 kts 252°
2026-05-04 20:15 -15.70096 -4.58639 30110 ft 488 kts 252°
2026-05-04 20:16 -15.72363 -4.65336 30105 ft 488 kts 252°
2026-05-04 20:16 -15.74614 -4.71993 30107 ft 488 kts 252°
2026-05-04 20:17 -15.76862 -4.78649 30105 ft 489 kts 252°
2026-05-04 20:17 -15.79109 -4.85307 30107 ft 489 kts 252°
2026-05-04 20:18 -15.81357 -4.91978 30107 ft 490 kts 252°
2026-05-04 20:18 -15.83605 -4.98657 30108 ft 490 kts 252°
2026-05-04 20:19 -15.85860 -5.05322 30104 ft 489 kts 251°
2026-05-04 20:19 -15.88125 -5.11962 30104 ft 488 kts 251°
2026-05-04 20:20 -15.90393 -5.18621 30110 ft 488 kts 251°
2026-05-04 20:20 -15.92656 -5.25277 30108 ft 489 kts 251°
2026-05-04 20:21 -15.94536 -5.30820 30111 ft 490 kts 251°
2026-05-04 20:21 -15.97938 -5.40865 30113 ft 492 kts 252°
2026-05-04 20:22 -16.00205 -5.47568 30112 ft 492 kts 252°
2026-05-04 20:22 -16.02470 -5.54270 30113 ft 492 kts 252°
2026-05-04 20:23 -16.04736 -5.60985 30113 ft 491 kts 252°
2026-05-04 20:23 -16.06990 -5.67673 30115 ft 491 kts 252°
2026-05-04 20:24 -16.09250 -5.74385 30115 ft 491 kts 252°
2026-05-04 20:24 -16.11505 -5.81090 30114 ft 492 kts 252°
2026-05-04 20:25 -16.13760 -5.87799 30113 ft 491 kts 252°
2026-05-04 20:25 -16.16009 -5.94502 30110 ft 490 kts 252°
2026-05-04 20:26 -16.18249 -6.01184 30118 ft 489 kts 252°
2026-05-04 20:26 -16.20481 -6.07854 30112 ft 488 kts 252°
2026-05-04 20:27 -16.22707 -6.14511 30111 ft 486 kts 252°
2026-05-04 20:27 -16.24931 -6.21168 30116 ft 487 kts 252°
2026-05-04 20:28 -16.27150 -6.27822 30116 ft 487 kts 252°
2026-05-04 20:28 -16.29374 -6.34495 30114 ft 488 kts 252°
2026-05-04 20:29 -16.31590 -6.41154 30120 ft 488 kts 252°
2026-05-04 20:29 -16.33791 -6.47771 30117 ft 487 kts 252°
2026-05-04 20:30 -16.36005 -6.54441 30121 ft 487 kts 252°
2026-05-04 20:30 -16.38214 -6.61102 30118 ft 488 kts 252°
2026-05-04 20:31 -16.40417 -6.67751 30118 ft 488 kts 252°
2026-05-04 20:31 -16.42625 -6.74425 30122 ft 487 kts 252°
2026-05-04 20:32 -16.44831 -6.81099 30122 ft 487 kts 252°
2026-05-04 20:32 -16.47031 -6.87764 30119 ft 487 kts 252°
2026-05-04 20:33 -16.49231 -6.94437 30120 ft 488 kts 252°
2026-05-04 20:33 -16.51441 -7.01145 30126 ft 489 kts 252°
2026-05-04 20:34 -16.53641 -7.07835 30123 ft 489 kts 252°
2026-05-04 20:34 -16.55848 -7.14553 30118 ft 490 kts 252°
2026-05-04 20:35 -16.58052 -7.21271 30123 ft 490 kts 252°
2026-05-04 20:35 -16.60253 -7.27987 30123 ft 489 kts 252°
2026-05-04 20:36 -16.62449 -7.34693 30124 ft 488 kts 252°
2026-05-04 20:36 -16.64639 -7.41393 30116 ft 488 kts 252°
2026-05-04 20:37 -16.66821 -7.48073 30124 ft 487 kts 252°
2026-05-04 20:37 -16.69003 -7.54765 30126 ft 487 kts 252°
2026-05-04 20:38 -16.71167 -7.61405 30126 ft 487 kts 252°
2026-05-04 20:38 -16.73357 -7.68138 30128 ft 487 kts 252°
2026-05-04 20:39 -16.75517 -7.74784 30127 ft 487 kts 252°
2026-05-04 20:39 -16.77689 -7.81477 30126 ft 487 kts 252°
2026-05-04 20:40 -16.79875 -7.88221 30131 ft 487 kts 252°
2026-05-04 20:40 -16.82043 -7.94917 30131 ft 488 kts 252°
2026-05-04 20:41 -16.84211 -8.01622 30134 ft 488 kts 252°
2026-05-04 20:41 -16.86384 -8.08352 30133 ft 488 kts 252°
2026-05-04 20:42 -16.88551 -8.15068 30132 ft 488 kts 252°
2026-05-04 20:42 -16.90694 -8.21793 30128 ft 488 kts 253°
2026-05-04 20:43 -16.92779 -8.28530 30133 ft 488 kts 253°
2026-05-04 20:43 -16.94856 -8.35270 30132 ft 487 kts 253°
2026-05-04 20:44 -16.96941 -8.42021 30135 ft 487 kts 253°
2026-05-04 20:44 -16.99021 -8.48749 30133 ft 487 kts 253°
2026-05-04 20:45 -17.01087 -8.55436 30140 ft 487 kts 253°
2026-05-04 20:45 -17.03174 -8.62201 30135 ft 487 kts 253°
2026-05-04 20:46 -17.05250 -8.68940 30140 ft 487 kts 253°
2026-05-04 20:46 -17.07305 -8.75620 30125 ft 487 kts 253°
2026-05-04 20:47 -17.09377 -8.82363 30139 ft 487 kts 253°
2026-05-04 20:47 -17.11445 -8.89103 30142 ft 487 kts 253°
2026-05-04 20:48 -17.13511 -8.95844 30143 ft 487 kts 253°
2026-05-04 20:48 -17.15576 -9.02591 30125 ft 487 kts 253°
2026-05-04 20:49 -17.17634 -9.09325 30126 ft 487 kts 253°
2026-05-04 20:49 -17.19695 -9.16077 30128 ft 487 kts 254°
2026-05-04 20:50 -17.21756 -9.22837 30132 ft 487 kts 254°
2026-05-04 20:50 -17.23811 -9.29587 30140 ft 488 kts 254°
2026-05-04 20:51 -17.25867 -9.36350 30154 ft 488 kts 254°
2026-05-04 20:51 -17.27926 -9.43131 30139 ft 488 kts 254°
2026-05-04 20:52 -17.29978 -9.49900 30139 ft 488 kts 254°
2026-05-04 20:52 -17.32015 -9.56625 30145 ft 488 kts 254°
2026-05-04 20:53 -17.34063 -9.63399 30148 ft 488 kts 254°
2026-05-04 20:53 -17.36109 -9.70173 30145 ft 488 kts 254°
2026-05-04 20:54 -17.38154 -9.76952 30144 ft 489 kts 254°
2026-05-04 20:54 -17.40200 -9.83745 30146 ft 489 kts 254°
2026-05-04 20:55 -17.42243 -9.90538 30146 ft 489 kts 254°
2026-05-04 20:55 -17.44282 -9.97327 30146 ft 489 kts 254°
2026-05-04 20:56 -17.46250 -10.04150 30145 ft 489 kts 256°
2026-05-04 20:56 -17.47982 -10.11046 30150 ft 488 kts 257°
2026-05-04 20:57 -17.49673 -10.17928 30146 ft 489 kts 257°
2026-05-04 20:57 -17.51393 -10.24808 30153 ft 489 kts 257°
2026-05-04 20:58 -17.53137 -10.31700 30152 ft 489 kts 257°
2026-05-04 20:58 -17.54881 -10.38583 30149 ft 489 kts 257°
2026-05-04 20:59 -17.56623 -10.45472 30152 ft 490 kts 257°
2026-05-04 20:59 -17.58365 -10.52376 30152 ft 490 kts 257°
2026-05-04 21:00 -17.60105 -10.59286 30154 ft 490 kts 257°
2026-05-04 21:00 -17.61840 -10.66188 30155 ft 489 kts 257°
2026-05-04 21:01 -17.63560 -10.73038 30152 ft 489 kts 257°
2026-05-04 21:01 -17.65290 -10.79938 30157 ft 489 kts 257°
2026-05-04 21:02 -17.67019 -10.86843 30158 ft 490 kts 257°